GW3673 Weather Reports


time (UTC)temp
C
wind
direction
speed
KPH
gust
KPH
rain 1hr
cm
rain 24hr
cm
rain mn
cm
humidity
%
barometer
mb
20260502210518 11 66 0.0 1.6 0.00 1.55 1.55 99 1011.4
20260502204543 11 0.0 0.0 0.00 1.55 1.55 99 1011.6
20260502203538 11 0.0 0.0 0.00 1.55 1.55 99 1011.6
20260502202518 11 0.0 0.0 0.00 1.55 1.55 98 1011.7
20260502201519 11 0.0 0.0 0.00 1.55 1.55 98 1011.7
20260502200516 11 0.0 0.0 0.03 1.55 1.55 98 1011.7
20260502195521 11 0.0 0.0 0.03 1.55 1.55 98 1011.8
20260502194522 11 0.0 0.0 0.05 1.55 1.55 98 1011.7
20260502193539 11 0.0 0.0 0.10 1.55 1.55 98 1011.7
20260502192519 11 0.0 0.0 0.15 1.55 1.55 98 1011.7
20260502190539 12 0.0 0.0 0.23 1.52 1.52 98 1011.8
20260502185520 12 0.0 0.0 0.30 1.52 1.52 98 1011.8
20260502184517 12 252 0.0 1.6 0.36 1.50 1.50 98 1011.8
20260502183520 12 0.0 0.0 0.38 1.45 1.45 98 1011.9
20260502182520 12 0.0 0.0 0.41 1.40 1.40 98 1011.9
20260502181520 12 266 0.0 1.6 0.41 1.37 1.37 98 1011.9
20260502180518 12 263 0.0 1.6 0.36 1.30 1.30 97 1012.1
20260502170518 12 272 0.0 1.6 0.38 0.94 0.94 96 1012.4
20260502163522 12 325 0.0 3.2 0.61 0.89 0.89 95 1012.7
20260502162536 12 301 0.0 4.8 0.53 0.79 0.79 94 1013.1
20260502161536 12 322 0.0 3.2 0.48 0.66 0.66 93 1013.2
20260502160619 12 264 0.0 1.6 0.46 0.58 0.58 92 1013.3
20260502151521 14 0.0 0.0 0.15 0.18 0.18 84 1013.9
20260502150526 15 0.0 0.0 0.10 0.13 0.13 82 1013.9
20260502130520 16 149 0.0 3.2 0.03 0.03 0.03 66 1014.9
20260502123517 17 121 0.0 6.4 0.00 0.00 0.00 63 1015.2
20260502122517 17 129 0.0 4.8 0.00 0.00 0.00 62 1015.3
20260502121518 17 146 1.6 4.8 0.00 0.00 0.00 63 1015.6
20260502120518 17 134 1.6 4.8 0.00 0.00 0.00 61 1015.7
20260502115521 17 136 1.6 6.4 0.00 0.00 0.00 60 1015.8
20260502114518 17 141 0.0 4.8 0.00 0.00 0.00 62 1015.9
20260502113518 17 138 1.6 6.4 0.00 0.00 0.00 62 1016.1
20260502112519 17 130 0.0 4.8 0.00 0.00 0.00 63 1016.2
20260502111639 16 329 0.0 3.2 0.00 0.00 0.00 65 1016.5
20260502110519 16 130 0.0 3.2 0.00 0.00 0.00 68 1016.8
20260502105539 15 115 0.0 4.8 0.00 0.00 0.00 69 1016.9
20260502104519 15 122 0.0 4.8 0.00 0.00 0.00 72 1017.1
20260502103519 15 159 0.0 4.8 0.00 0.00 0.00 73 1017.2
20260502102520 15 138 1.6 6.4 0.00 0.00 0.00 72 1017.0
20260502101540 14 89 0.0 1.6 0.00 0.00 0.00 75 1017.1
20260502100523 14 139 1.6 6.4 0.00 0.00 0.00 77 1017.2
20260502091521 13 323 0.0 4.8 0.00 0.00 0.00 81 1017.2
20260502090518 13 0.0 0.0 0.00 0.00 0.00 83 1017.2
20260502071520 10 0.0 0.0 0.00 0.00 0.00 100 1017.9
20260502070540 9 0.0 0.0 0.00 0.00 0.00 100 1017.8
20260502065517 8 0.0 0.0 0.00 0.00 0.00 100 1017.9
20260502064529 8 0.0 0.0 0.00 0.00 0.00 100 1018.0
20260502063523 7 0.0 0.0 0.00 0.00 0.00 100 1018.0
20260502062526 7 0.0 0.0 0.00 0.00 0.00 100 1018.0
20260502061518 7 0.0 0.0 0.00 0.00 0.00 100 1018.0
20260502060518 7 0.0 0.0 0.00 0.00 0.00 99 1018.1
20260502055518 6 0.0 0.0 0.00 0.00 0.00 99 1018.2
20260502054521 6 321 0.0 1.6 0.00 0.00 0.00 99 1018.2
20260502053524 6 0.0 0.0 0.00 0.00 0.00 99 1018.3
20260502052521 6 0.0 0.0 0.00 0.00 0.00 99 1018.3
20260502051522 6 278 0.0 1.6 0.00 0.00 0.00 99 1018.2
20260502050519 6 283 0.0 1.6 0.00 0.00 0.00 99 1018.1
20260502045519 6 252 0.0 1.6 0.00 0.00 0.00 99 1018.0
20260502044519 6 294 0.0 1.6 0.00 0.00 0.00 99 1017.9
20260502043519 6 0.0 0.0 0.00 0.00 0.00 99 1017.8
20260502042539 6 0.0 0.0 0.00 0.00 0.00 98 1017.9
20260502041517 6 0.0 0.0 0.00 0.00 0.00 98 1018.0
20260502040526 6 0.0 0.0 0.00 0.00 0.00 98 1018.1
20260502035520 6 0.0 0.0 0.00 0.00 0.00 98 1018.1
20260502034520 6 0.0 0.0 0.00 0.00 0.00 98 1018.2
20260502033520 7 0.0 0.0 0.00 0.00 0.00 98 1018.2
20260502032520 7 0.0 0.0 0.00 0.00 0.00 98 1018.4
20260502031518 7 213 0.0 1.6 0.00 0.00 0.00 98 1018.5
20260502030518 7 0.0 0.0 0.00 0.00 0.00 98 1018.6
20260502025518 7 0.0 0.0 0.00 0.00 0.00 98 1018.7
20260502024701 7 0.0 0.0 0.00 0.00 0.00 98 1018.8
20260502023518 7 0.0 0.0 0.00 0.00 0.00 98 1018.9
20260502022518 7 0.0 0.0 0.00 0.00 0.00 98 1018.9
20260502021541 7 0.0 0.0 0.00 0.00 0.00 98 1019.0
20260502020519 7 0.0 0.0 0.00 0.00 0.00 98 1019.0
20260502015519 7 238 0.0 3.2 0.00 0.00 0.00 98 1019.2
20260502014519 7 290 0.0 1.6 0.00 0.00 0.00 98 1019.2
20260502013519 7 331 0.0 3.2 0.00 0.00 0.00 98 1019.3
20260502012522 7 261 0.0 1.6 0.00 0.00 0.00 98 1019.3
20260502011520 8 266 0.0 3.2 0.00 0.00 0.00 97 1019.3
20260502010520 8 302 0.0 1.6 0.00 0.00 0.00 97 1019.3
20260502005520 8 301 0.0 4.8 0.00 0.00 0.00 97 1019.4
20260502004520 8 0.0 0.0 0.00 0.00 0.00 97 1019.6
20260502003518 8 0.0 0.0 0.00 0.00 0.00 97 1019.7
20260502002517 8 291 0.0 1.6 0.00 0.00 0.00 96 1019.8
20260502001518 8 0.0 0.0 0.00 0.00 0.00 96 1019.8
20260502000641 8 0.0 0.0 0.00 0.00 0.00 96 1019.8
20260501235518 8 0.0 0.0 0.00 0.00 0.00 96 1019.8
20260501234521 8 0.0 0.0 0.00 0.00 0.00 96 1019.8
20260501233518 9 0.0 0.0 0.00 0.00 0.00 96 1019.9
20260501232618 9 0.0 0.0 0.00 0.00 0.00 96 1019.9
20260501231539 9 0.0 0.0 0.00 0.00 0.00 95 1020.1
20260501230518 9 292 0.0 1.6 0.00 0.00 0.00 95 1020.2
20260501225519 9 0.0 0.0 0.00 0.00 0.00 95 1020.2
20260501224519 9 0.0 0.0 0.00 0.00 0.00 95 1020.3
20260501222519 9 0.0 0.0 0.00 0.00 0.00 95 1020.3
20260501221520 9 262 0.0 1.6 0.00 0.00 0.00 92 1020.4
20260501220520 9 299 0.0 3.2 0.00 0.00 0.00 92 1020.3
20260501215537 9 0.0 0.0 0.00 0.00 0.00 91 1020.3
20260501214517 9 238 0.0 1.6 0.00 0.00 0.00 91 1020.2
20260501213520 10 267 0.0 1.6 0.00 0.00 0.00 91 1020.2
20260501212540 10 290 0.0 1.6 0.00 0.00 0.00 90 1020.1
20260501211521 10 223 0.0 1.6 0.00 0.00 0.00 90 1020.1